date,time,SUV Intensity [MED/Hr],UV Index,Daily total [MED],Since Last [MED]
15/04/2022,00:06:56,0.000,0.0,0.0,0.0
15/04/2022,00:07:56,0.000,0.0,0.0,0.0
15/04/2022,00:09:04,0.001,0.0,0.0,0.0
15/04/2022,00:09:55,-0.001,0.0,0.0,0.0
15/04/2022,00:10:56,0.000,0.0,0.0,0.0
15/04/2022,00:11:56,0.001,0.0,0.0,0.0
15/04/2022,00:12:57,0.000,0.0,0.0,0.0
15/04/2022,00:13:56,0.000,0.0,0.0,0.0
15/04/2022,00:14:56,-0.001,0.0,0.0,0.0
15/04/2022,00:15:56,0.001,0.0,0.0,0.0
15/04/2022,00:16:56,0.000,0.0,0.0,0.0
15/04/2022,00:17:56,0.001,0.0,0.0,0.0
15/04/2022,00:18:56,0.000,0.0,0.0,0.0
15/04/2022,00:19:56,0.000,0.0,0.0,0.0
15/04/2022,00:20:56,0.000,0.0,0.0,0.0
15/04/2022,00:21:56,-0.001,0.0,0.0,0.0
15/04/2022,00:22:55,0.000,0.0,0.0,0.0
15/04/2022,00:23:56,0.000,0.0,0.0,0.0
15/04/2022,00:25:04,-0.000,0.0,0.0,0.0
15/04/2022,00:25:55,0.000,0.0,0.0,0.0
15/04/2022,00:26:56,0.000,0.0,0.0,0.0
15/04/2022,00:27:56,0.001,0.0,0.0,0.0
15/04/2022,00:28:56,-0.000,0.0,0.0,0.0
15/04/2022,00:29:56,0.000,0.0,0.0,0.0
15/04/2022,00:30:55,-0.001,0.0,0.0,0.0
15/04/2022,00:31:57,-0.000,0.0,0.0,0.0
15/04/2022,00:32:55,0.000,0.0,0.0,0.0
15/04/2022,00:33:56,0.000,0.0,0.0,0.0
15/04/2022,00:35:05,0.001,0.0,0.0,0.0
15/04/2022,00:35:56,-0.000,0.0,0.0,0.0
15/04/2022,00:36:56,0.000,0.0,0.0,0.0
15/04/2022,00:37:56,0.000,0.0,0.0,0.0
15/04/2022,00:38:56,0.001,0.0,0.0,0.0
15/04/2022,00:39:55,0.000,0.0,0.0,0.0
15/04/2022,00:40:56,0.000,0.0,0.0,0.0
15/04/2022,00:41:56,-0.001,0.0,0.0,0.0
15/04/2022,00:42:56,0.001,0.0,0.0,0.0
15/04/2022,00:43:56,0.000,0.0,0.0,0.0
15/04/2022,00:44:55,0.000,0.0,0.0,0.0
15/04/2022,00:45:56,0.000,0.0,0.0,0.0
15/04/2022,00:46:56,0.000,0.0,0.0,0.0
15/04/2022,00:47:55,0.000,0.0,0.0,0.0
15/04/2022,00:48:56,0.001,0.0,0.0,0.0
15/04/2022,00:49:55,-0.001,0.0,0.0,0.0
15/04/2022,00:50:56,0.001,0.0,0.0,0.0
15/04/2022,00:51:56,-0.001,0.0,0.0,0.0
15/04/2022,00:52:43,0.000,0.0,0.0,0.0
15/04/2022,00:53:57,-0.001,0.0,0.0,0.0
15/04/2022,00:54:56,0.000,0.0,0.0,0.0
15/04/2022,00:55:56,0.000,0.0,0.0,0.0
15/04/2022,00:56:55,0.000,0.0,0.0,0.0
15/04/2022,00:57:56,-0.001,0.0,0.0,0.0
15/04/2022,00:59:04,0.000,0.0,0.0,0.0
15/04/2022,00:59:55,0.000,0.0,0.0,0.0
15/04/2022,01:00:56,0.001,0.0,0.0,0.0
15/04/2022,01:01:56,0.001,0.0,0.0,0.0
15/04/2022,01:02:56,0.000,0.0,0.0,0.0
15/04/2022,01:03:55,0.000,0.0,0.0,0.0
15/04/2022,01:04:56,0.000,0.0,0.0,0.0
15/04/2022,01:05:55,0.001,0.0,0.0,0.0
15/04/2022,01:06:56,0.000,0.0,0.0,0.0
15/04/2022,01:07:55,0.000,0.0,0.0,0.0
15/04/2022,01:09:04,0.001,0.0,0.0,0.0
15/04/2022,01:09:55,0.000,0.0,0.0,0.0
15/04/2022,01:10:56,-0.000,0.0,0.0,0.0
15/04/2022,01:11:56,0.001,0.0,0.0,0.0
15/04/2022,01:12:58,0.000,0.0,0.0,0.0
15/04/2022,01:13:56,0.001,0.0,0.0,0.0
15/04/2022,01:14:57,0.000,0.0,0.0,0.0
15/04/2022,01:15:56,0.000,0.0,0.0,0.0
15/04/2022,01:16:56,0.000,0.0,0.0,0.0
15/04/2022,01:17:56,-0.001,0.0,0.0,0.0
15/04/2022,01:19:04,0.000,0.0,0.0,0.0
15/04/2022,01:20:56,0.000,0.0,0.0,0.0
15/04/2022,01:21:56,-0.000,0.0,0.0,0.0
15/04/2022,01:22:56,-0.000,0.0,0.0,0.0
15/04/2022,01:23:56,0.002,0.0,0.0,0.0
15/04/2022,01:25:04,0.000,0.0,0.0,0.0
15/04/2022,01:25:55,-0.001,0.0,0.0,0.0
15/04/2022,01:26:56,0.000,0.0,0.0,0.0
15/04/2022,01:27:56,0.000,0.0,0.0,0.0
15/04/2022,01:28:55,0.000,0.0,0.0,0.0
15/04/2022,01:29:56,0.002,0.0,0.0,0.0
15/04/2022,01:30:56,0.002,0.0,0.0,0.0
15/04/2022,01:31:56,0.000,0.0,0.0,0.0
15/04/2022,01:32:55,0.000,0.0,0.0,0.0
15/04/2022,01:33:56,0.001,0.0,0.0,0.0
15/04/2022,01:34:56,0.001,0.0,0.0,0.0
15/04/2022,01:35:56,0.001,0.0,0.0,0.0
15/04/2022,01:36:56,0.001,0.0,0.0,0.0
15/04/2022,01:37:56,0.001,0.0,0.0,0.0
15/04/2022,01:38:55,-0.000,0.0,0.0,0.0
15/04/2022,01:39:56,0.000,0.0,0.0,0.0
15/04/2022,01:40:56,0.001,0.0,0.0,0.0
15/04/2022,01:42:04,0.000,0.0,0.0,0.0
15/04/2022,01:42:56,0.001,0.0,0.0,0.0
15/04/2022,01:43:56,0.001,0.0,0.0,0.0
15/04/2022,01:44:56,0.001,0.0,0.0,0.0
15/04/2022,01:45:56,0.001,0.0,0.0,0.0
15/04/2022,01:46:56,0.000,0.0,0.0,0.0
15/04/2022,01:47:57,0.001,0.0,0.0,0.0
15/04/2022,01:48:55,0.001,0.0,0.0,0.0
15/04/2022,01:49:56,0.000,0.0,0.0,0.0
15/04/2022,01:50:56,-0.000,0.0,0.0,0.0
15/04/2022,01:52:04,0.001,0.0,0.0,0.0
15/04/2022,01:52:56,0.001,0.0,0.0,0.0
15/04/2022,01:53:56,0.001,0.0,0.0,0.0
15/04/2022,01:54:56,0.001,0.0,0.0,0.0
15/04/2022,01:55:56,0.001,0.0,0.0,0.0
15/04/2022,01:56:56,0.001,0.0,0.0,0.0
15/04/2022,01:57:56,0.001,0.0,0.0,0.0
15/04/2022,01:58:58,0.001,0.0,0.0,0.0
15/04/2022,01:59:56,0.001,0.0,0.0,0.0
15/04/2022,02:00:56,0.001,0.0,0.0,0.0
15/04/2022,02:01:56,0.001,0.0,0.0,0.0
15/04/2022,02:02:56,-0.000,0.0,0.0,0.0
15/04/2022,02:03:56,0.001,0.0,0.0,0.0
15/04/2022,02:04:56,0.001,0.0,0.0,0.0
15/04/2022,02:05:56,0.000,0.0,0.0,0.0
15/04/2022,02:06:56,0.001,0.0,0.0,0.0
15/04/2022,02:07:56,0.001,0.0,0.0,0.0
15/04/2022,02:08:56,0.001,0.0,0.0,0.0
15/04/2022,02:09:56,0.001,0.0,0.0,0.0
15/04/2022,02:10:56,0.001,0.0,0.0,0.0
15/04/2022,02:11:56,0.000,0.0,0.0,0.0
15/04/2022,02:12:56,0.001,0.0,0.0,0.0
15/04/2022,02:13:56,-0.000,0.0,0.0,0.0
15/04/2022,02:14:56,0.001,0.0,0.0,0.0
15/04/2022,02:15:56,0.001,0.0,0.0,0.0
15/04/2022,02:16:56,-0.000,0.0,0.0,0.0
15/04/2022,02:17:56,0.001,0.0,0.0,0.0
15/04/2022,02:18:56,0.001,0.0,0.0,0.0
15/04/2022,02:19:58,0.002,0.0,0.0,0.0
15/04/2022,02:20:56,0.000,0.0,0.0,0.0
15/04/2022,02:21:56,0.001,0.0,0.0,0.0
15/04/2022,02:22:56,0.001,0.0,0.0,0.0
15/04/2022,02:23:56,0.001,0.0,0.0,0.0
15/04/2022,02:24:56,0.001,0.0,0.0,0.0
15/04/2022,02:25:56,0.001,0.0,0.0,0.0
15/04/2022,02:26:56,0.001,0.0,0.0,0.0
15/04/2022,02:27:55,0.000,0.0,0.0,0.0
15/04/2022,02:28:56,0.001,0.0,0.0,0.0
15/04/2022,02:30:04,0.001,0.0,0.0,0.0
15/04/2022,02:30:55,0.001,0.0,0.0,0.0
15/04/2022,02:32:04,0.001,0.0,0.0,0.0
15/04/2022,02:33:03,0.001,0.0,0.0,0.0
15/04/2022,02:33:56,0.001,0.0,0.0,0.0
15/04/2022,02:34:56,0.001,0.0,0.0,0.0
15/04/2022,02:35:56,0.001,0.0,0.0,0.0
15/04/2022,02:36:56,0.001,0.0,0.0,0.0
15/04/2022,02:37:56,0.000,0.0,0.0,0.0
15/04/2022,02:38:56,-0.000,0.0,0.0,0.0
15/04/2022,02:39:55,0.001,0.0,0.0,0.0
15/04/2022,02:40:56,0.001,0.0,0.0,0.0
15/04/2022,02:41:56,-0.000,0.0,0.0,0.0
15/04/2022,02:43:04,0.001,0.0,0.0,0.0
15/04/2022,02:44:57,0.002,0.0,0.0,0.0
15/04/2022,02:45:56,0.001,0.0,0.0,0.0
15/04/2022,02:46:56,0.000,0.0,0.0,0.0
15/04/2022,02:47:56,0.001,0.0,0.0,0.0
15/04/2022,02:48:56,0.001,0.0,0.0,0.0
15/04/2022,02:49:56,0.001,0.0,0.0,0.0
15/04/2022,02:50:56,0.002,0.0,0.0,0.0
15/04/2022,02:51:56,0.001,0.0,0.0,0.0
15/04/2022,02:53:04,0.001,0.0,0.0,0.0
15/04/2022,02:54:56,0.000,0.0,0.0,0.0
15/04/2022,02:55:56,0.002,0.0,0.0,0.0
15/04/2022,02:56:56,0.001,0.0,0.0,0.0
15/04/2022,02:57:56,0.002,0.0,0.0,0.0
15/04/2022,02:58:57,0.001,0.0,0.0,0.0
15/04/2022,02:59:56,0.001,0.0,0.0,0.0
15/04/2022,03:00:56,0.001,0.0,0.0,0.0
15/04/2022,03:01:56,0.001,0.0,0.0,0.0
15/04/2022,03:03:04,0.001,0.0,0.0,0.0
15/04/2022,03:04:56,0.001,0.0,0.0,0.0
15/04/2022,03:05:56,0.001,0.0,0.0,0.0
15/04/2022,03:06:57,0.001,0.0,0.0,0.0
15/04/2022,03:07:56,0.001,0.0,0.0,0.0
15/04/2022,03:08:56,0.001,0.0,0.0,0.0
15/04/2022,03:09:56,0.001,0.0,0.0,0.0
15/04/2022,03:10:57,0.001,0.0,0.0,0.0
15/04/2022,03:11:56,0.001,0.0,0.0,0.0
15/04/2022,03:12:56,0.001,0.0,0.0,0.0
15/04/2022,03:13:56,0.000,0.0,0.0,0.0
15/04/2022,03:14:56,0.002,0.0,0.0,0.0
15/04/2022,03:15:56,0.001,0.0,0.0,0.0
15/04/2022,03:16:56,0.001,0.0,0.0,0.0
15/04/2022,03:17:56,0.001,0.0,0.0,0.0
15/04/2022,03:18:56,0.001,0.0,0.0,0.0
15/04/2022,03:19:56,0.001,0.0,0.0,0.0
15/04/2022,03:20:56,0.001,0.0,0.0,0.0
15/04/2022,03:21:56,0.001,0.0,0.0,0.0
15/04/2022,03:22:56,0.001,0.0,0.0,0.0
15/04/2022,03:23:56,0.001,0.0,0.0,0.0
15/04/2022,03:24:56,0.001,0.0,0.0,0.0
15/04/2022,03:25:56,0.000,0.0,0.0,0.0
15/04/2022,03:26:56,0.000,0.0,0.0,0.0
15/04/2022,03:27:56,0.001,0.0,0.0,0.0
15/04/2022,03:28:57,0.001,0.0,0.0,0.0
15/04/2022,03:29:56,0.001,0.0,0.0,0.0
15/04/2022,03:30:56,0.002,0.0,0.0,0.0
15/04/2022,03:31:56,0.001,0.0,0.0,0.0
15/04/2022,03:32:56,0.001,0.0,0.0,0.0
15/04/2022,03:33:56,0.001,0.0,0.0,0.0
15/04/2022,03:34:56,0.001,0.0,0.0,0.0
15/04/2022,03:35:56,0.001,0.0,0.0,0.0
15/04/2022,03:37:05,0.002,0.0,0.0,0.0
15/04/2022,03:37:56,0.001,0.0,0.0,0.0
15/04/2022,03:38:56,0.001,0.0,0.0,0.0
15/04/2022,03:40:05,0.001,0.0,0.0,0.0
15/04/2022,03:40:56,0.001,0.0,0.0,0.0
15/04/2022,03:41:56,0.001,0.0,0.0,0.0
15/04/2022,03:42:56,0.001,0.0,0.0,0.0
15/04/2022,03:43:56,0.002,0.0,0.0,0.0
15/04/2022,03:44:56,0.001,0.0,0.0,0.0
15/04/2022,03:45:56,0.001,0.0,0.0,0.0
15/04/2022,03:46:56,0.001,0.0,0.0,0.0
15/04/2022,03:47:56,0.000,0.0,0.0,0.0
15/04/2022,03:48:56,0.001,0.0,0.0,0.0
15/04/2022,03:50:05,0.000,0.0,0.0,0.0
15/04/2022,03:50:56,0.002,0.0,0.0,0.0
15/04/2022,03:51:57,0.002,0.0,0.0,0.0
15/04/2022,03:52:56,0.001,0.0,0.0,0.0
15/04/2022,03:53:57,0.002,0.0,0.0,0.0
15/04/2022,03:54:56,0.002,0.0,0.0,0.0
15/04/2022,03:55:56,0.001,0.0,0.0,0.0
15/04/2022,03:56:56,0.001,0.0,0.0,0.0
15/04/2022,03:57:56,0.000,0.0,0.0,0.0
15/04/2022,03:58:56,0.001,0.0,0.0,0.0
15/04/2022,04:00:04,0.001,0.0,0.0,0.0
15/04/2022,04:02:06,0.001,0.0,0.0,0.0
15/04/2022,04:03:56,0.001,0.0,0.0,0.0
15/04/2022,04:04:56,0.001,0.0,0.0,0.0
15/04/2022,04:05:56,0.002,0.0,0.0,0.0
15/04/2022,04:06:56,0.001,0.0,0.0,0.0
15/04/2022,04:07:56,0.001,0.0,0.0,0.0
15/04/2022,04:08:56,0.001,0.0,0.0,0.0
15/04/2022,04:09:56,0.001,0.0,0.0,0.0
15/04/2022,04:10:57,0.001,0.0,0.0,0.0
15/04/2022,04:11:57,0.001,0.0,0.0,0.0
15/04/2022,04:12:56,0.001,0.0,0.0,0.0
15/04/2022,04:13:56,0.001,0.0,0.0,0.0
15/04/2022,04:14:56,0.001,0.0,0.0,0.0
15/04/2022,04:15:56,0.000,0.0,0.0,0.0
15/04/2022,04:16:56,0.002,0.0,0.0,0.0
15/04/2022,04:17:56,0.001,0.0,0.0,0.0
15/04/2022,04:18:56,0.001,0.0,0.0,0.0
15/04/2022,04:19:56,0.002,0.0,0.0,0.0
15/04/2022,04:21:04,0.001,0.0,0.0,0.0
15/04/2022,04:21:56,0.001,0.0,0.0,0.0
15/04/2022,04:22:56,0.002,0.0,0.0,0.0
15/04/2022,04:23:56,0.001,0.0,0.0,0.0
15/04/2022,04:24:56,0.000,0.0,0.0,0.0
15/04/2022,04:25:56,0.002,0.0,0.0,0.0
15/04/2022,04:26:56,0.001,0.0,0.0,0.0
15/04/2022,04:27:56,0.001,0.0,0.0,0.0
15/04/2022,04:28:56,0.001,0.0,0.0,0.0
15/04/2022,04:29:57,0.001,0.0,0.0,0.0
15/04/2022,04:31:05,0.001,0.0,0.0,0.0
15/04/2022,04:32:57,0.001,0.0,0.0,0.0
15/04/2022,04:33:56,0.001,0.0,0.0,0.0
15/04/2022,04:34:57,0.002,0.0,0.0,0.0
15/04/2022,04:35:56,0.001,0.0,0.0,0.0
15/04/2022,04:36:56,0.002,0.0,0.0,0.0
15/04/2022,04:38:04,0.001,0.0,0.0,0.0
15/04/2022,04:38:56,0.000,0.0,0.0,0.0
15/04/2022,04:39:56,0.002,0.0,0.0,0.0
15/04/2022,04:40:56,0.002,0.0,0.0,0.0
15/04/2022,04:41:56,0.002,0.0,0.0,0.0
15/04/2022,04:42:56,0.001,0.0,0.0,0.0
15/04/2022,04:43:56,0.001,0.0,0.0,0.0
15/04/2022,04:44:56,0.000,0.0,0.0,0.0
15/04/2022,04:45:56,0.001,0.0,0.0,0.0
15/04/2022,04:46:57,0.001,0.0,0.0,0.0
15/04/2022,04:47:56,0.001,0.0,0.0,0.0
15/04/2022,04:48:43,0.002,0.0,0.0,0.0
15/04/2022,04:49:57,0.001,0.0,0.0,0.0
15/04/2022,04:50:56,0.002,0.0,0.0,0.0
15/04/2022,04:51:56,0.001,0.0,0.0,0.0
15/04/2022,04:52:56,0.002,0.0,0.0,0.0
15/04/2022,04:53:56,0.001,0.0,0.0,0.0
15/04/2022,04:54:56,0.001,0.0,0.0,0.0
15/04/2022,04:56:04,0.001,0.0,0.0,0.0
15/04/2022,04:56:56,0.001,0.0,0.0,0.0
15/04/2022,04:57:57,0.002,0.0,0.0,0.0
15/04/2022,04:58:56,0.002,0.0,0.0,0.0
15/04/2022,04:59:56,0.002,0.0,0.0,0.0
15/04/2022,05:00:56,0.003,0.0,0.0,0.0
15/04/2022,05:02:05,0.002,0.0,0.0,0.0
15/04/2022,05:03:57,0.002,0.0,0.0,0.0
15/04/2022,05:04:56,0.003,0.0,0.0,0.0
15/04/2022,05:05:57,0.002,0.0,0.0,0.0
15/04/2022,05:06:56,0.003,0.0,0.0,0.0
15/04/2022,05:07:57,0.002,0.0,0.0,0.0
15/04/2022,05:08:56,0.002,0.0,0.0,0.0
15/04/2022,05:09:57,0.003,0.0,0.0,0.0
15/04/2022,05:10:58,0.003,0.0,0.0,0.0
15/04/2022,05:12:04,0.003,0.0,0.0,0.0
15/04/2022,05:14:05,0.003,0.0,0.0,0.0
15/04/2022,05:16:05,0.003,0.0,0.0,0.0
15/04/2022,05:17:57,0.005,0.0,0.0,0.0
15/04/2022,05:18:56,0.004,0.0,0.0,0.0
15/04/2022,05:20:04,0.004,0.0,0.0,0.0
15/04/2022,05:20:56,0.005,0.0,0.0,0.0
15/04/2022,05:21:56,0.005,0.0,0.0,0.0
15/04/2022,05:23:04,0.004,0.0,0.0,0.0
15/04/2022,05:23:56,0.004,0.0,0.0,0.0
15/04/2022,05:24:56,0.005,0.0,0.0,0.0
15/04/2022,05:25:57,0.006,0.0,0.0,0.0
15/04/2022,05:26:56,0.006,0.0,0.0,0.0
15/04/2022,05:27:57,0.006,0.0,0.0,0.0
15/04/2022,05:28:57,0.006,0.0,0.0,0.0
15/04/2022,05:29:57,0.007,0.0,0.0,0.0
15/04/2022,05:30:56,0.007,0.0,0.0,0.0
15/04/2022,05:31:56,0.006,0.0,0.0,0.0
15/04/2022,05:33:04,0.008,0.0,0.001,0.001
15/04/2022,05:34:57,0.008,0.0,0.001,0.0
15/04/2022,05:35:56,0.010,0.0,0.001,0.0
15/04/2022,05:36:57,0.009,0.0,0.001,0.0
15/04/2022,05:37:57,0.009,0.0,0.001,0.0
15/04/2022,05:38:56,0.010,0.0,0.001,0.0
15/04/2022,05:39:56,0.010,0.0,0.002,0.001
15/04/2022,05:40:56,0.011,0.0,0.002,0.0
15/04/2022,05:41:56,0.011,0.0,0.002,0.0
15/04/2022,05:43:05,0.012,0.0,0.002,0.0
15/04/2022,05:43:56,0.012,0.0,0.002,0.0
15/04/2022,05:44:57,0.012,0.0,0.003,0.001
15/04/2022,05:45:56,0.013,0.0,0.003,0.0
15/04/2022,05:46:57,0.013,0.0,0.003,0.0
15/04/2022,05:47:57,0.014,0.0,0.003,0.0
15/04/2022,05:48:56,0.015,0.0,0.003,0.0
15/04/2022,05:49:57,0.015,0.0,0.004,0.001
15/04/2022,05:50:56,0.016,0.0,0.004,0.0
15/04/2022,05:51:56,0.017,0.0,0.004,0.0
15/04/2022,05:52:57,0.017,0.0,0.004,0.0
15/04/2022,05:53:57,0.018,0.0,0.005,0.001
15/04/2022,05:54:57,0.018,0.0,0.005,0.0
15/04/2022,05:55:56,0.019,0.0,0.005,0.0
15/04/2022,05:56:57,0.020,0.0,0.006,0.001
15/04/2022,05:57:56,0.020,0.0,0.006,0.0
15/04/2022,05:58:57,0.020,0.0,0.006,0.0
15/04/2022,05:59:56,0.022,0.0,0.007,0.001
15/04/2022,06:00:57,0.023,0.0,0.007,0.0
15/04/2022,06:01:56,0.023,0.0,0.008,0.001
15/04/2022,06:02:56,0.024,0.0,0.008,0.0
15/04/2022,06:04:05,0.025,0.0,0.008,0.0
15/04/2022,06:05:57,0.027,0.0,0.009,0.001
15/04/2022,06:07:04,0.028,0.0,0.01,0.001
15/04/2022,06:07:56,0.028,0.0,0.01,0.0
15/04/2022,06:08:57,0.030,0.0,0.011,0.001
15/04/2022,06:09:56,0.031,0.0,0.011,0.0
15/04/2022,06:10:56,0.032,0.0,0.012,0.001
15/04/2022,06:11:56,0.033,0.0,0.012,0.0
15/04/2022,06:12:57,0.034,0.0,0.013,0.001
15/04/2022,06:13:56,0.035,0.0,0.013,0.0
15/04/2022,06:14:56,0.036,0.0,0.014,0.001
15/04/2022,06:15:57,0.037,0.0,0.014,0.0
15/04/2022,06:17:08,0.038,0.0,0.015,0.001
15/04/2022,06:18:57,0.041,0.0,0.016,0.001
15/04/2022,06:19:58,0.043,0.0,0.017,0.001
15/04/2022,06:20:55,0.043,0.0,0.018,0.001
15/04/2022,06:21:57,0.044,0.0,0.019,0.001
15/04/2022,06:22:57,0.046,0.0,0.019,0.0
15/04/2022,06:23:56,0.046,0.0,0.02,0.001
15/04/2022,06:24:57,0.048,0.0,0.021,0.001
15/04/2022,06:25:56,0.050,0.0,0.022,0.001
15/04/2022,06:26:57,0.051,0.0,0.023,0.001
15/04/2022,06:27:56,0.052,0.0,0.023,0.0
15/04/2022,06:28:56,0.054,0.0,0.024,0.001
15/04/2022,06:29:56,0.055,0.0,0.025,0.001
15/04/2022,06:30:56,0.057,0.0,0.026,0.001
15/04/2022,06:32:04,0.060,0.0,0.027,0.001
15/04/2022,06:33:57,0.062,0.0,0.029,0.002
15/04/2022,06:35:05,0.064,0.0,0.03,0.001
15/04/2022,06:36:57,0.068,0.0,0.032,0.002
15/04/2022,06:37:57,0.069,0.0,0.033,0.001
15/04/2022,06:38:56,0.070,0.0,0.035,0.002
15/04/2022,06:39:57,0.071,0.0,0.036,0.001
15/04/2022,06:40:57,0.074,0.0,0.037,0.001
15/04/2022,06:41:56,0.076,0.0,0.038,0.001
15/04/2022,06:42:56,0.077,0.0,0.04,0.002
15/04/2022,06:43:56,0.079,0.0,0.041,0.001
15/04/2022,06:45:05,0.082,0.0,0.042,0.001
15/04/2022,06:45:56,0.084,0.0,0.044,0.002
15/04/2022,06:46:56,0.086,0.0,0.045,0.001
15/04/2022,06:47:57,0.088,0.0,0.046,0.001
15/04/2022,06:48:57,0.090,0.0,0.048,0.002
15/04/2022,06:49:56,0.092,0.0,0.049,0.001
15/04/2022,06:51:09,0.094,0.0,0.051,0.002
15/04/2022,06:52:57,0.098,0.0,0.054,0.003
15/04/2022,06:53:57,0.100,0.0,0.056,0.002
15/04/2022,06:55:05,0.103,0.0,0.058,0.002
15/04/2022,06:56:04,0.105,0.0,0.059,0.001
15/04/2022,06:56:56,0.108,0.0,0.061,0.002
15/04/2022,06:57:57,0.110,0.0,0.063,0.002
15/04/2022,06:58:57,0.112,0.0,0.065,0.002
15/04/2022,06:59:56,0.113,0.0,0.066,0.001
15/04/2022,07:00:57,0.115,0.0,0.068,0.002
15/04/2022,07:01:56,0.118,0.0,0.07,0.002
15/04/2022,07:03:05,0.121,0.0,0.073,0.003
15/04/2022,07:03:56,0.124,0.0,0.074,0.001
15/04/2022,07:04:57,0.127,0.0,0.076,0.002
15/04/2022,07:06:04,0.130,0.0,0.079,0.003
15/04/2022,07:06:55,0.130,0.0,0.081,0.002
15/04/2022,07:07:58,0.134,0.0,0.083,0.002
15/04/2022,07:08:56,0.139,0.0,0.085,0.002
15/04/2022,07:10:04,0.142,0.0,0.088,0.003
15/04/2022,07:10:56,0.145,0.0,0.09,0.002
15/04/2022,07:11:56,0.151,0.0,0.092,0.002
15/04/2022,07:13:04,0.155,0.0,0.095,0.003
15/04/2022,07:13:56,0.158,0.0,0.098,0.003
15/04/2022,07:14:57,0.161,0.0,0.1,0.002
15/04/2022,07:15:56,0.164,0.0,0.103,0.003
15/04/2022,07:16:56,0.168,0.0,0.106,0.003
15/04/2022,07:17:57,0.169,0.0,0.109,0.003
15/04/2022,07:18:56,0.171,0.0,0.111,0.002
15/04/2022,07:20:05,0.174,0.0,0.115,0.004
15/04/2022,07:20:58,0.175,0.0,0.117,0.002
15/04/2022,07:21:57,0.176,0.0,0.12,0.003
15/04/2022,07:23:05,0.179,0.0,0.123,0.003
15/04/2022,07:24:57,0.189,0.0,0.129,0.006
15/04/2022,07:25:56,0.191,0.0,0.132,0.003
15/04/2022,07:26:56,0.194,0.0,0.136,0.004
15/04/2022,07:27:56,0.197,0.0,0.139,0.003
15/04/2022,07:28:57,0.199,0.0,0.142,0.003
15/04/2022,07:30:04,0.212,0.0,0.146,0.004
15/04/2022,07:30:56,0.218,1.0,0.149,0.003
15/04/2022,07:31:56,0.224,1.0,0.153,0.004
15/04/2022,07:32:56,0.225,1.0,0.157,0.004
15/04/2022,07:33:57,0.226,1.0,0.16,0.003
15/04/2022,07:34:57,0.227,1.0,0.164,0.004
15/04/2022,07:35:56,0.224,1.0,0.168,0.004
15/04/2022,07:36:56,0.236,1.0,0.172,0.004
15/04/2022,07:37:56,0.240,1.0,0.176,0.004
15/04/2022,07:39:05,0.240,1.0,0.18,0.004
15/04/2022,07:39:56,0.244,1.0,0.184,0.004
15/04/2022,07:40:57,0.251,1.0,0.188,0.004
15/04/2022,07:41:56,0.256,1.0,0.192,0.004
15/04/2022,07:42:57,0.259,1.0,0.196,0.004
15/04/2022,07:43:57,0.263,1.0,0.201,0.005
15/04/2022,07:44:56,0.267,1.0,0.205,0.004
15/04/2022,07:45:56,0.274,1.0,0.21,0.005
15/04/2022,07:46:58,0.281,1.0,0.214,0.004
15/04/2022,07:47:57,0.293,1.0,0.219,0.005
15/04/2022,07:48:57,0.301,1.0,0.224,0.005
15/04/2022,07:49:57,0.302,1.0,0.229,0.005
15/04/2022,07:50:56,0.309,1.0,0.234,0.005
15/04/2022,07:51:56,0.314,1.0,0.239,0.005
15/04/2022,07:52:56,0.320,1.0,0.245,0.006
15/04/2022,07:53:57,0.323,1.0,0.25,0.005
15/04/2022,07:54:57,0.331,1.0,0.255,0.005
15/04/2022,07:55:56,0.338,1.0,0.261,0.006
15/04/2022,07:56:57,0.342,1.0,0.267,0.006
15/04/2022,07:57:56,0.344,1.0,0.272,0.005
15/04/2022,07:58:57,0.350,1.0,0.278,0.006
15/04/2022,07:59:56,0.361,1.0,0.284,0.006
15/04/2022,08:01:04,0.365,1.0,0.291,0.007
15/04/2022,08:01:56,0.372,1.0,0.296,0.005
15/04/2022,08:03:05,0.380,1.0,0.303,0.007
15/04/2022,08:05:18,0.362,1.0,0.317,0.014
15/04/2022,08:06:58,0.393,1.0,0.327,0.01
15/04/2022,08:07:57,0.399,1.0,0.334,0.007
15/04/2022,08:08:56,0.402,1.0,0.34,0.006
15/04/2022,08:09:56,0.411,1.0,0.347,0.007
15/04/2022,08:11:05,0.420,1.0,0.355,0.008
15/04/2022,08:12:58,0.419,1.0,0.368,0.013
15/04/2022,08:14:05,0.435,1.0,0.376,0.008
15/04/2022,08:15:57,0.444,1.0,0.39,0.014
15/04/2022,08:16:57,0.451,1.0,0.397,0.007
15/04/2022,08:17:56,0.454,1.0,0.405,0.008
15/04/2022,08:18:56,0.460,1.0,0.412,0.007
15/04/2022,08:19:57,0.463,1.0,0.42,0.008
15/04/2022,08:20:57,0.468,1.0,0.428,0.008
15/04/2022,08:21:56,0.461,1.0,0.436,0.008
15/04/2022,08:22:57,0.480,1.0,0.444,0.008
15/04/2022,08:24:05,0.484,1.0,0.453,0.009
15/04/2022,08:25:57,0.497,1.0,0.468,0.015
15/04/2022,08:26:57,0.508,1.0,0.476,0.008
15/04/2022,08:27:56,0.518,1.0,0.485,0.009
15/04/2022,08:28:57,0.530,1.0,0.494,0.009
15/04/2022,08:29:58,0.541,1.0,0.503,0.009
15/04/2022,08:30:56,0.552,1.0,0.512,0.009
15/04/2022,08:31:57,0.561,1.0,0.521,0.009
15/04/2022,08:32:57,0.570,1.0,0.53,0.009
15/04/2022,08:34:04,0.577,1.0,0.541,0.011
15/04/2022,08:34:55,0.580,1.0,0.55,0.009
15/04/2022,08:35:57,0.584,1.0,0.559,0.009
15/04/2022,08:36:56,0.585,1.0,0.569,0.01
15/04/2022,08:37:57,0.592,1.0,0.579,0.01
15/04/2022,08:38:57,0.594,1.0,0.589,0.01
15/04/2022,08:39:56,0.597,1.0,0.599,0.01
15/04/2022,08:40:57,0.600,1.0,0.609,0.01
15/04/2022,08:41:57,0.599,1.0,0.619,0.01
15/04/2022,08:42:57,0.610,1.0,0.629,0.01
15/04/2022,08:44:05,0.609,1.0,0.64,0.011
15/04/2022,08:44:56,0.618,1.0,0.649,0.009
15/04/2022,08:45:56,0.624,1.0,0.659,0.01
15/04/2022,08:46:56,0.619,1.0,0.67,0.011
15/04/2022,08:47:57,0.604,1.0,0.68,0.01
15/04/2022,08:48:57,0.605,1.0,0.69,0.01
15/04/2022,08:50:04,0.608,1.0,0.701,0.011
15/04/2022,08:50:56,0.611,1.0,0.71,0.009
15/04/2022,08:51:56,0.610,1.0,0.721,0.011
15/04/2022,08:52:56,0.625,1.0,0.731,0.01
15/04/2022,08:54:05,0.615,1.0,0.743,0.012
15/04/2022,08:54:56,0.623,1.0,0.752,0.009
15/04/2022,08:55:58,0.654,2.0,0.763,0.011
15/04/2022,08:57:12,0.650,1.0,0.776,0.013
15/04/2022,08:58:58,0.706,2.0,0.796,0.02
15/04/2022,08:59:57,0.693,2.0,0.807,0.011
15/04/2022,09:00:57,0.720,2.0,0.819,0.012
15/04/2022,09:01:48,0.716,2.0,0.829,0.01
15/04/2022,09:02:58,0.737,2.0,0.843,0.014
15/04/2022,09:04:05,0.741,2.0,0.857,0.014
15/04/2022,09:04:56,0.750,2.0,0.868,0.011
15/04/2022,09:05:57,0.741,2.0,0.88,0.012
15/04/2022,09:06:56,0.754,2.0,0.893,0.013
15/04/2022,09:07:57,0.758,2.0,0.905,0.012
15/04/2022,09:08:57,0.796,2.0,0.918,0.013
15/04/2022,09:09:56,0.807,2.0,0.932,0.014
15/04/2022,09:10:57,0.814,2.0,0.945,0.013
15/04/2022,09:11:56,0.816,2.0,0.959,0.014
15/04/2022,09:12:56,0.805,2.0,0.972,0.013
15/04/2022,09:14:05,0.822,2.0,0.988,0.016
15/04/2022,09:15:57,0.841,2.0,1.014,0.026
15/04/2022,09:16:57,0.809,2.0,1.028,0.014
15/04/2022,09:17:57,0.867,2.0,1.042,0.014
15/04/2022,09:18:56,0.856,2.0,1.056,0.014
15/04/2022,09:19:57,0.864,2.0,1.07,0.014
15/04/2022,09:20:57,0.875,2.0,1.085,0.015
15/04/2022,09:21:56,0.880,2.0,1.099,0.014
15/04/2022,09:22:57,0.876,2.0,1.114,0.015
15/04/2022,09:23:56,0.911,2.0,1.129,0.015
15/04/2022,09:24:57,0.918,2.0,1.144,0.015
15/04/2022,09:25:57,0.925,2.0,1.159,0.015
15/04/2022,09:27:05,0.937,2.0,1.177,0.018
15/04/2022,09:29:05,0.944,2.0,1.209,0.032
15/04/2022,09:30:57,0.963,2.0,1.238,0.029
15/04/2022,09:31:56,0.972,2.0,1.254,0.016
15/04/2022,09:32:57,0.985,2.0,1.271,0.017
15/04/2022,09:33:57,0.874,2.0,1.285,0.014
15/04/2022,09:34:57,0.995,2.0,1.302,0.017
15/04/2022,09:35:57,1.001,2.0,1.318,0.016
15/04/2022,09:37:05,1.007,2.0,1.337,0.019
15/04/2022,09:38:04,1.021,2.0,1.354,0.017
15/04/2022,09:38:57,1.026,2.0,1.369,0.015
15/04/2022,09:39:57,1.032,2.0,1.386,0.017
15/04/2022,09:40:57,1.034,2.0,1.403,0.017
15/04/2022,09:41:56,1.044,2.0,1.421,0.018
15/04/2022,09:42:57,1.058,2.0,1.438,0.017
15/04/2022,09:43:57,1.061,2.0,1.456,0.018
15/04/2022,09:44:56,1.065,2.0,1.473,0.017
15/04/2022,09:45:57,1.023,2.0,1.491,0.018
15/04/2022,09:47:05,1.054,2.0,1.51,0.019
15/04/2022,09:47:56,1.050,2.0,1.526,0.016
15/04/2022,09:48:57,1.034,2.0,1.543,0.017
15/04/2022,09:49:57,1.065,2.0,1.561,0.018
15/04/2022,09:50:57,1.084,2.0,1.579,0.018
15/04/2022,09:51:57,1.096,3.0,1.597,0.018
15/04/2022,09:52:57,1.103,3.0,1.615,0.018
15/04/2022,09:53:56,1.117,3.0,1.634,0.019
15/04/2022,09:54:57,1.130,3.0,1.652,0.018
15/04/2022,09:55:56,1.129,3.0,1.671,0.019
15/04/2022,09:56:55,1.142,3.0,1.689,0.018
15/04/2022,09:57:57,1.157,3.0,1.709,0.02
15/04/2022,09:58:56,1.158,3.0,1.728,0.019
15/04/2022,09:59:56,1.168,3.0,1.748,0.02
15/04/2022,10:00:56,1.173,3.0,1.767,0.019
15/04/2022,10:01:57,1.181,3.0,1.787,0.02
15/04/2022,10:02:57,1.188,3.0,1.807,0.02
15/04/2022,10:03:56,1.191,3.0,1.827,0.02
15/04/2022,10:04:57,1.195,3.0,1.847,0.02
15/04/2022,10:05:56,1.198,3.0,1.866,0.019
15/04/2022,10:06:56,1.206,3.0,1.887,0.021
15/04/2022,10:07:56,1.218,3.0,1.907,0.02
15/04/2022,10:08:57,1.223,3.0,1.927,0.02
15/04/2022,10:09:57,1.220,3.0,1.947,0.02
15/04/2022,10:10:57,1.224,3.0,1.968,0.021
15/04/2022,10:11:56,1.236,3.0,1.988,0.02
15/04/2022,10:12:57,1.247,3.0,2.009,0.021
15/04/2022,10:14:13,1.251,3.0,2.036,0.027
15/04/2022,10:15:57,1.259,3.0,2.072,0.036
15/04/2022,10:16:56,1.271,3.0,2.093,0.021
15/04/2022,10:17:57,1.283,3.0,2.115,0.022
15/04/2022,10:18:57,1.285,3.0,2.135,0.02
15/04/2022,10:19:57,1.293,3.0,2.157,0.022
15/04/2022,10:20:56,1.300,3.0,2.178,0.021
15/04/2022,10:21:57,1.300,3.0,2.201,0.023
15/04/2022,10:22:56,1.307,3.0,2.222,0.021
15/04/2022,10:24:06,1.310,3.0,2.247,0.025
15/04/2022,10:24:57,1.320,3.0,2.265,0.018
15/04/2022,10:26:06,1.317,3.0,2.291,0.026
15/04/2022,10:27:05,1.335,3.0,2.312,0.021
15/04/2022,10:27:57,1.338,3.0,2.332,0.02
15/04/2022,10:28:56,1.353,3.0,2.354,0.022
15/04/2022,10:29:59,1.356,3.0,2.377,0.023
15/04/2022,10:30:57,1.348,3.0,2.399,0.022
15/04/2022,10:31:56,1.356,3.0,2.422,0.023
15/04/2022,10:32:57,1.335,3.0,2.444,0.022
15/04/2022,10:33:57,1.358,3.0,2.468,0.024
15/04/2022,10:34:56,1.357,3.0,2.49,0.022